TimeEST,TemperatureF,Dew PointF,Humidity,Sea Level PressureIn,VisibilityMPH,Wind Direction,Wind SpeedMPH,Gust SpeedMPH,PrecipitationIn,Events,Conditions,WindDirDegrees,DateUTC
12:15 AM,32.0,30.2,93,30.15,10.0,Calm,Calm,-,N/A,,Clear,0,2012-11-26 05:15:00
12:35 AM,32.0,30.2,93,30.15,10.0,Calm,Calm,-,N/A,,Clear,0,2012-11-26 05:35:00
1:15 AM,32.0,28.4,87,30.15,10.0,Calm,Calm,-,N/A,,Clear,0,2012-11-26 06:15:00
1:35 AM,32.0,28.4,87,30.14,10.0,Calm,Calm,-,N/A,,Clear,0,2012-11-26 06:35:00
1:55 AM,32.0,28.4,87,30.14,10.0,Calm,Calm,-,N/A,,Clear,0,2012-11-26 06:55:00
2:15 AM,32.0,28.4,87,30.14,10.0,Calm,Calm,-,N/A,,Clear,0,2012-11-26 07:15:00
2:35 AM,32.0,28.4,87,30.14,10.0,Calm,Calm,-,N/A,,Clear,0,2012-11-26 07:35:00
2:55 AM,32.0,28.4,87,30.15,10.0,Calm,Calm,-,N/A,,Clear,0,2012-11-26 07:55:00
3:15 AM,32.0,28.4,87,30.15,10.0,Calm,Calm,-,N/A,,Clear,0,2012-11-26 08:15:00
3:35 AM,30.2,28.4,93,30.15,10.0,Calm,Calm,-,N/A,,Clear,0,2012-11-26 08:35:00
3:55 AM,30.2,28.4,93,30.15,10.0,Calm,Calm,-,N/A,,Clear,0,2012-11-26 08:55:00
4:15 AM,30.2,28.4,93,30.16,10.0,Calm,Calm,-,N/A,,Clear,0,2012-11-26 09:15:00
4:35 AM,30.2,28.4,93,30.16,10.0,Calm,Calm,-,N/A,,Clear,0,2012-11-26 09:35:00
4:55 AM,30.2,28.4,93,30.16,10.0,Calm,Calm,-,N/A,,Clear,0,2012-11-26 09:55:00
5:15 AM,30.2,28.4,93,30.16,10.0,Calm,Calm,-,N/A,,Clear,0,2012-11-26 10:15:00
5:35 AM,30.2,28.4,93,30.17,10.0,Calm,Calm,-,N/A,,Clear,0,2012-11-26 10:35:00
5:55 AM,30.2,28.4,93,30.18,10.0,Calm,Calm,-,N/A,,Clear,0,2012-11-26 10:55:00
6:15 AM,30.2,28.4,93,30.18,10.0,Calm,Calm,-,N/A,,Clear,0,2012-11-26 11:15:00
6:35 AM,30.2,28.4,93,30.19,10.0,Calm,Calm,-,N/A,,Clear,0,2012-11-26 11:35:00
7:15 AM,30.2,28.4,93,30.20,10.0,Calm,Calm,-,N/A,,Clear,0,2012-11-26 12:15:00
7:35 AM,30.2,28.4,93,30.21,10.0,Calm,Calm,-,N/A,,Clear,0,2012-11-26 12:35:00
7:55 AM,32.0,28.4,87,30.22,10.0,Calm,Calm,-,N/A,,Clear,0,2012-11-26 12:55:00
8:15 AM,33.8,30.2,87,30.22,10.0,Calm,Calm,-,N/A,,Clear,0,2012-11-26 13:15:00
8:35 AM,37.4,30.2,75,30.23,10.0,Calm,Calm,-,N/A,,Clear,0,2012-11-26 13:35:00
8:55 AM,42.8,30.2,61,30.23,10.0,Calm,Calm,-,N/A,,Clear,0,2012-11-26 13:55:00
9:15 AM,44.6,28.4,53,30.24,10.0,SW,4.6,-,N/A,,Clear,230,2012-11-26 14:15:00
9:35 AM,46.4,28.4,50,30.25,10.0,Calm,Calm,-,N/A,,Clear,0,2012-11-26 14:35:00
9:55 AM,50.0,28.4,43,30.25,10.0,SW,4.6,-,N/A,,Clear,220,2012-11-26 14:55:00
10:15 AM,53.6,28.4,38,30.25,10.0,Calm,Calm,-,N/A,,Clear,0,2012-11-26 15:15:00
10:35 AM,57.2,28.4,33,30.25,10.0,SW,4.6,-,N/A,,Clear,230,2012-11-26 15:35:00
10:55 AM,59.0,26.6,29,30.24,10.0,WSW,5.8,-,N/A,,Clear,250,2012-11-26 15:55:00
11:15 AM,60.8,26.6,27,30.23,10.0,SW,5.8,-,N/A,,Clear,220,2012-11-26 16:15:00
11:35 AM,62.6,26.6,26,30.23,10.0,WSW,6.9,-,N/A,,Clear,250,2012-11-26 16:35:00
11:55 AM,64.4,23.0,21,30.22,10.0,WSW,6.9,-,N/A,,Clear,250,2012-11-26 16:55:00
12:15 PM,66.2,21.2,18,30.21,10.0,West,6.9,-,N/A,,Clear,260,2012-11-26 17:15:00
12:35 PM,66.2,23.0,19,30.20,10.0,WSW,5.8,-,N/A,,Clear,240,2012-11-26 17:35:00
12:55 PM,66.2,19.4,17,30.19,10.0,SW,5.8,-,N/A,,Clear,230,2012-11-26 17:55:00
1:15 PM,69.8,21.2,16,30.19,10.0,Calm,Calm,-,N/A,,Clear,0,2012-11-26 18:15:00
1:35 PM,69.8,21.2,16,30.18,10.0,SW,6.9,-,N/A,,Clear,230,2012-11-26 18:35:00
1:55 PM,69.8,19.4,15,30.18,10.0,SW,8.1,-,N/A,,Clear,220,2012-11-26 18:55:00
2:15 PM,69.8,21.2,16,30.18,10.0,SW,8.1,-,N/A,,Clear,230,2012-11-26 19:15:00
2:35 PM,69.8,21.2,16,30.17,10.0,SW,5.8,-,N/A,,Clear,220,2012-11-26 19:35:00
2:55 PM,71.6,19.4,14,30.17,10.0,SSW,8.1,-,N/A,,Clear,210,2012-11-26 19:55:00
3:15 PM,71.6,19.4,14,30.16,10.0,South,5.8,-,N/A,,Clear,190,2012-11-26 20:15:00
3:35 PM,69.8,19.4,15,30.16,10.0,SW,5.8,-,N/A,,Clear,220,2012-11-26 20:35:00
3:55 PM,69.8,21.2,16,30.16,10.0,SSW,3.5,-,N/A,,Clear,200,2012-11-26 20:55:00
4:15 PM,69.8,23.0,17,30.16,10.0,Calm,Calm,-,N/A,,Clear,0,2012-11-26 21:15:00
4:35 PM,69.8,23.0,17,30.16,10.0,SSW,4.6,-,N/A,,Clear,210,2012-11-26 21:35:00
5:15 PM,66.2,26.6,23,30.16,10.0,Calm,Calm,-,N/A,,Clear,0,2012-11-26 22:15:00
5:35 PM,64.4,24.8,22,30.17,10.0,Calm,Calm,-,N/A,,Clear,0,2012-11-26 22:35:00
5:55 PM,59.0,28.4,31,30.17,10.0,Calm,Calm,-,N/A,,Clear,0,2012-11-26 22:55:00
6:15 PM,53.6,28.4,38,30.18,10.0,Calm,Calm,-,N/A,,Clear,0,2012-11-26 23:15:00
6:35 PM,51.8,30.2,44,30.18,10.0,Calm,Calm,-,N/A,,Clear,0,2012-11-26 23:35:00
6:55 PM,51.8,32.0,47,30.18,10.0,Calm,Calm,-,N/A,,Clear,0,2012-11-26 23:55:00
7:15 PM,48.2,32.0,54,30.19,10.0,Calm,Calm,-,N/A,,Clear,0,2012-11-27 00:15:00
7:35 PM,48.2,30.2,50,30.19,10.0,Calm,Calm,-,N/A,,Clear,0,2012-11-27 00:35:00
7:55 PM,46.4,30.2,53,30.20,10.0,Calm,Calm,-,N/A,,Clear,0,2012-11-27 00:55:00
8:15 PM,46.4,30.2,53,30.20,10.0,Calm,Calm,-,N/A,,Clear,0,2012-11-27 01:15:00
8:35 PM,44.6,30.2,57,30.20,10.0,Calm,Calm,-,N/A,,Clear,0,2012-11-27 01:35:00
9:15 PM,42.8,32.0,66,30.21,10.0,Calm,Calm,-,N/A,,Clear,0,2012-11-27 02:15:00
9:35 PM,42.8,32.0,66,30.21,10.0,Calm,Calm,-,N/A,,Clear,0,2012-11-27 02:35:00
9:55 PM,41.0,32.0,70,30.20,10.0,Calm,Calm,-,N/A,,Clear,0,2012-11-27 02:55:00
10:35 PM,41.0,32.0,70,30.21,10.0,Calm,Calm,-,N/A,,Clear,0,2012-11-27 03:35:00
10:55 PM,41.0,32.0,70,30.21,10.0,Calm,Calm,-,N/A,,Clear,0,2012-11-27 03:55:00
11:15 PM,39.2,32.0,75,30.21,10.0,Calm,Calm,-,N/A,,Clear,0,2012-11-27 04:15:00
11:35 PM,39.2,32.0,75,30.21,10.0,Calm,Calm,-,N/A,,Clear,0,2012-11-27 04:35:00
11:55 PM,39.2,32.0,75,30.21,10.0,Calm,Calm,-,N/A,,Clear,0,2012-11-27 04:55:00